Location: Eldred Sherwood Park Lake Dam
(42.9416°N, 93.5655°W)
Time: 11:52:13
(UTC+00:00)

HTV-X1 - Visible Passes

Search period start: 08 May 2026 00:00
Search period end: 18 May 2026 00:00
Orbit: 373 x 383 km, 51.6° (Epoch: 8 May)

Date Brightness Start Highest point End Pass type
(mag) Time Alt. Az. Time Alt. Az. Time Alt. Az.
8 May ? 07:04:02 11° NE 07:04:02 11° NE 07:04:10 10° NE visible
8 May ? 08:36:13 14° NW 08:38:35 36° NNE 08:41:30 10° E visible
8 May ? 10:11:39 10° WNW 10:14:26 30° SW 10:17:13 10° SSE visible
9 May ? 02:45:36 10° SSW 02:48:27 37° SE 02:49:46 24° E visible
9 May ? 04:21:34 10° W 04:22:08 14° W 04:22:08 14° W visible
9 May ? 07:39:25 15° ENE 07:39:25 15° ENE 07:40:12 10° ENE visible
9 May ? 09:11:41 19° WNW 09:13:46 72° SW 09:16:51 10° SE visible
10 May ? 03:20:26 10° WSW 03:23:28 58° NNW 03:26:31 10° NE visible
10 May ? 04:57:33 10° WNW 04:58:55 17° NW 04:58:55 17° NW visible
10 May ? 09:48:59 18° SW 09:48:59 18° SW 09:50:52 10° S visible
11 May ? 02:19:37 10° SW 02:22:39 63° SE 02:25:43 10° ENE visible
11 May ? 03:56:07 10° WNW 03:58:44 24° NNW 04:01:22 10° NE visible
11 May ? 05:33:20 10° NW 05:33:55 12° NNW 05:33:55 12° NNW visible
12 May ? 02:54:48 10° W 02:57:43 39° NNW 03:00:40 10° NE visible
12 May ? 04:32:05 10° NW 04:34:13 17° N 04:35:50 12° NNE visible
13 May ? 03:30:38 10° WNW 03:33:03 20° NNW 03:35:28 10° NE visible
13 May ? 05:07:36 10° NW 05:09:29 17° N 05:09:29 17° N visible
14 May ? 02:29:10 10° W 02:31:55 29° NNW 02:34:40 10° NE visible
14 May ? 04:06:27 10° NW 04:08:30 16° N 04:10:33 10° NE visible
14 May ? 05:42:30 10° NW 05:42:56 13° NW 05:42:56 13° NW visible
15 May ? 03:05:02 10° NW 03:07:15 18° N 03:09:29 10° NE visible
15 May ? 04:41:41 10° NW 04:43:58 19° N 04:44:12 18° NNE visible
16 May ? 02:03:29 10° WNW 02:06:02 23° NNW 02:08:36 10° NE visible
16 May ? 03:40:38 10° NW 03:42:42 16° N 03:44:46 10° NE visible
16 May ? 05:16:25 10° NW 05:17:28 18° NNW 05:17:28 18° NNW visible
17 May ? 02:39:18 10° NW 02:41:24 17° N 02:43:29 10° NE visible
17 May ? 04:15:35 10° NW 04:18:04 21° NNE 04:18:38 20° NNE visible
